• Processing (Info)

  • MPEC 2005-G22 : 2005 EO1

    The following Minor Planet Electronic Circular may be linked-to from your own Web pages, but must not otherwise be redistributed electronically.

    A form allowing access to any MPEC is at the bottom of this page.


    Read MPEC 2005-G21 Read MPEC 2005-G23


    M.P.E.C. 2005-G22                                Issued 2005 Apr. 4, 16:15 UT
    
         The Minor Planet Electronic Circulars contain information on unusual
             minor planets and routine data on comets.  They are published
       on behalf of Commission 20 of the International Astronomical Union by the
              Minor Planet Center, Smithsonian Astrophysical Observatory,
                              Cambridge, MA 02138, U.S.A.
    
                      Supported in part by the Brinson Foundation
                 Prepared using the Tamkin Foundation Computer Network
    
                                  MPC@CFA.HARVARD.EDU
              URL http://cfa-www.harvard.edu/iau/mpc.html  ISSN 1523-6714
    
                                       2005 EO1
    
                               Revision to MPEC 2005-E21
    
    Additional Observations:
         K05E01O  C2001 08 27.45302 03 25 30.02 +33 01 24.2          20.2 R EG022644
         K05E01O  C2001 08 27.46559 03 25 29.95 +33 01 22.1                 EG022644
         K05E01O  C2001 08 27.47642 03 25 29.90 +33 01 19.7          20.3 R EG022644
         K05E01O  C2001 09 21.43789 03 06 33.39 +30 11 15.8          20.7 R EG022644
         K05E01O  C2001 09 21.45883 03 06 31.52 +30 11 02.7          19.7 R EG022644
         K05E01O  C2001 09 21.48377 03 06 29.36 +30 10 46.8          19.8 R EG022644
         K05E01O  C2001 10 20.51775 02 15 37.75 +22 51 35.1          19.4 R EG022644
         K05E01O  C2001 10 20.54115 02 15 35.25 +22 51 09.7          19.9 R EG022644
    
    Observer details:
    644 Palomar Mountain/NEAT.  Observers E. F. Helin, S. Pravdo, K. Lawrence,
        K. Kuluhiwa, M. Hicks, R. Thicksten, R. Bambery, E. Helin.  Measurer
        R. Matson.  1.2-m Schmidt + CCD.
    
    Orbital elements:
    2005 EO1
    Epoch 2005 Jan. 30.0 TT = JDT 2453400.5                 MPC
    M 326.22170              (2000.0)            P               Q
    n   0.24407272     Peri.   40.78660     +0.02169225     +0.98204668
    a   2.5358480      Node   231.31110     -0.96829204     -0.02602121
    e   0.7050430      Incl.   13.89065     -0.24887741     +0.18683472
    P   4.04           H   18.3           G   0.15           U   2
    Residuals in seconds of arc
    010827 644  0.5-  0.3-    050303 F65  0.2-  0.2-    050323 448  1.0-  0.1+
    010827 644  0.1-  0.2+    050303 F65  0.2-  0.3-    050323 448  0.4-  0.1+
    010827 644  0.5+  0.1+    050303 F65  0.4-  0.0     050331 246  0.6+  0.7+
    010921 644  0.1-  0.4-    050304 H36  0.6+  0.5+    050331 246  0.1-  0.6+
    010921 644  0.4-  0.1-    050304 H36  1.8+  1.1-    050331 246  1.0+  0.7+
    010921 644  0.1+  0.0     050308 704  0.4-  0.1+    050331 246  0.1+  0.3+
    011020 644  0.0   0.5+    050308 704  0.2-  0.0     050331 246  0.3+  0.4-
    011020 644  0.2+  0.7+    050308 704  0.8+  0.1+    050331 246  0.2-  0.1-
    050302 704  0.7-  0.9-    050311 703  1.1-  0.4+    050331 246  0.1-  1.0+
    050302 704  0.2+  0.2-    050311 703  0.1+  0.2+    050402 246  0.3+  0.6-
    050302 704  0.3-  0.1+    050311 703  0.1+  0.8+    050402 246  0.3+  0.7-
    050302 704  0.3-  0.5-    050311 703  0.3-  0.2-    050402 246  0.1-  0.3-
    050303 854  0.1+  0.4+    050315 474  0.2-  0.4-    050402 246  0.1-  0.1-
    050303 854  1.0+  0.7+    050315 474  0.3-  0.2-    050404 644  0.1+  0.4+
    050303 854  1.7+  1.6-    050315 474  0.2-  0.3-    050404 644  0.1-  0.4+
    050303 F65  0.2-  0.2-    050323 448  0.6-  0.3-    050404 644  0.1+  0.4+
    
    Ephemeris:
    2005 EO1                 a,e,i = 2.54, 0.71, 14                  q = 0.7480
    Date    TT    R. A. (2000) Decl.     Delta      r     Elong.  Phase     V
    2005 03 31    09 05.90   -15 44.3    0.539    1.390   126.7    35.2    19.1
    2005 04 10    08 46.20   -11 41.1    0.492    1.283   113.9    45.5    19.0
    2005 04 20    08 30.53   -06 51.4    0.450    1.176   100.9    57.0    19.0
    2005 04 30    08 17.86   -01 15.6    0.407    1.071    87.6    70.1    19.0
    2005 05 10    08 04.98   +05 33.2    0.361    0.970    73.4    85.7    19.0
    2005 05 20    07 45.07   +14 36.4    0.312    0.880    56.8   106.0    19.4
    2005 05 30    07 04.49   +26 53.6    0.275    0.808    36.0   132.5    21.0
    2005 06 09    05 48.08   +39 22.4    0.273    0.761    18.5   155.0    24.4
    2005 06 19    04 19.59   +44 39.4    0.321    0.749    28.1   140.2    22.1
    2005 06 29    03 27.60   +44 04.4    0.401    0.773    42.9   116.4    20.3
    2005 07 09    03 09.85   +42 26.2    0.488    0.829    53.8    97.8    19.9
    2005 07 19    03 08.14   +41 08.0    0.564    0.908    62.6    83.9    19.8
    2005 07 29    03 11.79   +40 10.3    0.625    1.002    70.8    73.1    19.8
    2005 08 08    03 15.37   +39 21.7    0.668    1.104    79.1    64.4    19.9
    2005 08 18    03 15.92   +38 30.9    0.695    1.210    88.2    56.7    20.0
    2005 08 28    03 11.85   +37 27.5    0.711    1.317    98.4    49.3    20.0
    2005 09 07    03 02.25   +35 59.9    0.720    1.424   109.9    41.7    20.0
    2005 09 17    02 47.22   +33 56.2    0.731    1.530   122.7    33.6    19.9
    2005 09 27    02 28.18   +31 09.5    0.752    1.633   136.7    24.9    19.9
    2005 10 07    02 07.56   +27 43.7    0.790    1.734   151.2    16.1    19.9
    2005 10 17    01 48.23   +23 58.1    0.852    1.832   164.4     8.4    19.8
    2005 10 27    01 32.40   +20 19.3    0.942    1.927   169.0     5.6    20.0
    2005 11 06    01 21.03   +17 09.1    1.060    2.020   159.9     9.7    20.6
    2005 11 16    01 14.21   +14 38.7    1.203    2.111   148.4    14.2    21.1
    2005 11 26    01 11.40   +12 49.1    1.368    2.198   137.4    17.7    21.6
    2005 12 06    01 11.94   +11 36.1    1.550    2.283   127.0    20.2    22.0
    2005 12 16    01 15.18   +10 53.6    1.746    2.366   117.4    21.7    22.4
    
    Timothy B. Spahr             (C) Copyright 2005 MPC           M.P.E.C. 2005-G22
    

    Read MPEC 2005-G21 Read MPEC 2005-G23


    MPEC number:

    Enter an MPEC number in one of the following forms:

    • 1997-B01 (the full form)
    • J97B01 (the packed version of the full form)
    • B01 (the abbreviated form)